Location: American Canyon
(38.1966°N, 122.1514°W)
Time: 16:52:42
(UTC+00:00)

ALOS - Pass Details

Date: 29 October 2020
Orbit: 683 x 685 km, 97.9° (Epoch: 23 November)

Event Time Altitude Azimuth Distance (km) Brightness Sun altitude
Rises 12:20:27 0° 18° (NNE) 3,054 5.9 -26.4°
Reaches altitude 10° 12:22:47 10° 24° (NNE) 2,134 5.1 -25.9°
Maximum altitude 12:27:18 49° 99° (E) 881 3.1 -25.0°
Drops below altitude 10° 12:31:48 10° 175° (S) 2,120 4.8 -24.2°
Sets 12:34:05 0° 180° (S) 3,031 5.6 -23.7°
